TimePDT,TemperatureF,Dew PointF,Humidity,Sea Level PressureIn,VisibilityMPH,Wind Direction,Wind SpeedMPH,Gust SpeedMPH,PrecipitationIn,Events,Conditions,WindDirDegrees,DateUTC
12:48 AM,51.1,34.0,52,29.88,10.0,NW,13.8,-,N/A,,Clear,320,2013-03-27 07:48:00
1:48 AM,51.1,37.9,61,29.87,10.0,NNW,20.7,-,N/A,,Clear,330,2013-03-27 08:48:00
2:48 AM,50.0,37.0,61,29.85,10.0,NNW,20.7,-,N/A,,Clear,340,2013-03-27 09:48:00
3:48 AM,50.0,37.0,61,29.84,10.0,NNW,23.0,29.9,N/A,,Clear,340,2013-03-27 10:48:00
4:48 AM,50.0,35.1,57,29.85,10.0,NNW,23.0,-,N/A,,Clear,330,2013-03-27 11:48:00
5:48 AM,48.9,35.1,59,29.86,10.0,NNW,16.1,-,N/A,,Clear,330,2013-03-27 12:48:00
6:48 AM,48.0,37.0,66,29.89,10.0,NNW,13.8,-,N/A,,Clear,340,2013-03-27 13:48:00
7:39 AM,48.2,37.4,66,29.99,10.0,North,6.9,17.3,N/A,,Partly Cloudy,360,2013-03-27 14:39:00
7:48 AM,48.9,37.0,64,29.91,10.0,Variable,4.6,-,N/A,,Clear,0,2013-03-27 14:48:00
8:10 AM,50.0,37.4,62,30.00,10.0,NNE,3.5,-,N/A,,Partly Cloudy,20,2013-03-27 15:10:00
8:48 AM,53.1,36.0,52,29.91,10.0,North,6.9,-,N/A,,Clear,360,2013-03-27 15:48:00
9:48 AM,55.9,36.0,47,29.92,10.0,North,11.5,-,N/A,,Clear,350,2013-03-27 16:48:00
10:48 AM,59.0,34.0,39,29.92,10.0,North,12.7,-,N/A,,Clear,350,2013-03-27 17:48:00
11:48 AM,62.1,35.1,37,29.92,10.0,North,11.5,16.1,N/A,,Mostly Cloudy,350,2013-03-27 18:48:00
12:48 PM,61.0,36.0,39,29.92,10.0,NNW,8.1,17.3,N/A,,Scattered Clouds,330,2013-03-27 19:48:00
1:48 PM,60.1,37.0,42,29.92,10.0,NW,3.5,-,N/A,,Overcast,310,2013-03-27 20:48:00
2:48 PM,59.0,39.9,49,29.91,10.0,Variable,3.5,-,N/A,,Overcast,0,2013-03-27 21:48:00
3:48 PM,57.9,41.0,53,29.92,10.0,SE,3.5,-,N/A,,Overcast,140,2013-03-27 22:48:00
4:20 PM,57.2,42.8,59,30.01,10.0,SSE,4.6,-,N/A,,Overcast,160,2013-03-27 23:20:00
4:48 PM,57.0,42.1,57,29.92,10.0,SSE,5.8,-,N/A,,Overcast,160,2013-03-27 23:48:00
5:48 PM,55.9,42.1,60,29.93,10.0,Variable,3.5,-,N/A,,Overcast,0,2013-03-28 00:48:00
6:48 PM,53.1,41.0,64,29.95,10.0,Variable,5.8,-,N/A,,Partly Cloudy,0,2013-03-28 01:48:00
7:48 PM,50.0,42.1,74,29.96,10.0,WSW,4.6,-,N/A,,Clear,250,2013-03-28 02:48:00
8:48 PM,50.0,41.0,71,29.96,10.0,SW,3.5,-,N/A,,Clear,230,2013-03-28 03:48:00
9:48 PM,48.9,42.1,77,29.98,10.0,WSW,4.6,-,N/A,,Clear,240,2013-03-28 04:48:00
10:48 PM,48.0,42.1,80,29.99,9.0,WSW,4.6,-,N/A,,Clear,250,2013-03-28 05:48:00
11:48 PM,48.0,39.0,71,29.98,10.0,NW,9.2,-,N/A,,Clear,320,2013-03-28 06:48:00